Flag for U.S.A. Weather past 2 weeks in Citrus Heights, California, U.S.A.

Now
45 °F

Fog.


Feels Like: 45 °F
Forecast: 41 / 62 °F
Wind: No wind

Location: Mather Field

Current Time: Jan 25, 2015 at 11:17:53 PM

Latest Report: Jan 25, 2015 at 8:46 PM


Visibility: 5 mi

Pressure: 30.07 "Hg

Humidity: 100%

Dew point: 45 °F

Location of Citrus HeightsLocation

Historic Weather in Citrus Heights — Graph

°F

Citrus Heights temperature yesterday

Maximum temperature yesterday: 50 °F (at 2:46 PM)
Minimum temperature yesterday: 43 °F (at 4:45 AM)
Average temperature yesterday: 45 °F

Past Weeks' High & Low Weather Summary

 TemperatureHumidityPressure
High63 °F (Jan 12, 1:46 PM)100% (Jan 10, 8:46 PM)30.40 "Hg (Jan 10, 8:46 PM)
Low36 °F (Jan 13, 2:55 AM)48% (Jan 25, 4:46 PM)30.00 "Hg (Jan 10, 8:46 PM)
Average47 °F98%30.23 "Hg
* Reported Jan 10 8:46 PM — Jan 25 8:46 PM, Citrus Heights, Weather by CustomWeather, © 2014

Note: Actual official high and low records may vary slightly from our data, if they occured in-between our weather recording intervals... More about our weather records

Advertising

Citrus Heights weather history for previous 24 hours

 ConditionsComfort  
Time TempWeatherWind HumidityBarometerVisibility
8:46 PM
Jan 25
45 °FFog.No wind100%30.07 "Hg5 mi
7:46 PM45 °FClear.6 mph100%30.06 "Hg7 mi
6:46 PM46 °FClear.5 mph100%30.04 "Hg10 mi
5:46 PM50 °FClear.6 mph100%30.03 "Hg10 mi
4:46 PM57 °FSunny.7 mph48%30.03 "Hg10 mi
3:50 PM59 °FSunny.No wind63%30.04 "Hg10 mi
2:46 PM59 °FSunny.No wind68%30.06 "Hg10 mi
1:45 PM55 °FSunny.3 mph100%30.09 "Hg10 mi
12:55 PM54 °FSunny.3 mph100%30.11 "Hg10 mi
11:45 AM48 °FPassing clouds.No wind100%30.16 "Hg10 mi
10:47 AM41 °FFog.No wind100%30.19 "Hg4 mi
9:45 AM41 °FFog.3 mph100%30.20 "Hg1 mi
8:47 AM41 °FLow clouds.7 mph100%30.20 "Hg0 mi
7:45 AM41 °FLow clouds.3 mph100%30.20 "Hg0 mi
6:45 AM41 °FLow clouds.3 mph100%30.20 "Hg0 mi
5:50 AM41 °FLow clouds.No wind100%30.20 "Hg0 mi
4:47 AM41 °FLow clouds.3 mph100%30.20 "Hg0 mi
Weather by CustomWeather, © 2014

See weather overviewHow to use our weather pages